| time (UTC) | temp F | wind direction | speed MPH | gust MPH | rain 1hr in | rain 24hr in | rain mn in | humidity % | barometer mb |
| 20260504141207 | 92 | 90 | 0.0 | 0.0 | 0.00 | 0.00 | 0.00 | 20 | 1014.1 |
| 20260504140708 | 88 | 69 | 0.0 | 1.0 | 0.00 | 0.00 | 0.00 | 22 | 1014.2 |
| 20260504140209 | 88 | 69 | 0.0 | 1.0 | 0.00 | 0.00 | 0.00 | 21 | 1014.3 |
| 20260504130722 | 84 | 62 | 0.0 | 1.0 | 0.00 | 0.00 | 0.00 | 24 | 1014.8 |
| 20260504130223 | 82 | 86 | 0.0 | 0.0 | 0.00 | 0.00 | 0.00 | 26 | 1014.7 |
| 20260504120238 | 90 | 162 | 0.0 | 1.0 | 0.00 | 0.00 | 0.00 | 20 | 1015.1 |
| 20260504110253 | 76 | 163 | 0.0 | 1.0 | 0.00 | 0.00 | 0.00 | 29 | 1015.5 |
| 20260504100307 | 75 | 45 | 0.0 | 1.0 | 0.00 | 0.00 | 0.00 | 30 | 1015.9 |
| 20260504081833 | 71 | 90 | 0.0 | 0.0 | 0.00 | 0.00 | 0.00 | 32 | 1016.5 |
| 20260504081334 | 70 | 90 | 0.0 | 0.0 | 0.00 | 0.00 | 0.00 | 33 | 1016.4 |
| 20260504080835 | 69 | 90 | 0.0 | 0.0 | 0.00 | 0.00 | 0.00 | 34 | 1016.4 |
| 20260504080336 | 70 | 90 | 0.0 | 0.0 | 0.00 | 0.00 | 0.00 | 33 | 1016.4 |
| 20260504070350 | 64 | 90 | 0.0 | 0.0 | 0.00 | 0.00 | 0.00 | 37 | 1016.1 |
| 20260504050419 | 59 | 0 | 0.0 | 0.0 | 0.00 | 0.00 | 0.00 | 39 | 1016.2 |
| 20260504045921 | 59 | 0 | 0.0 | 0.0 | 0.00 | 0.00 | 0.00 | 39 | 1016.2 |
| 20260504045422 | 58 | 0 | 0.0 | 0.0 | 0.00 | 0.00 | 0.00 | 40 | 1016.1 |
| 20260504044923 | 58 | 0 | 0.0 | 0.0 | 0.00 | 0.00 | 0.00 | 40 | 1016.0 |
| 20260504044424 | 58 | 0 | 0.0 | 0.0 | 0.00 | 0.00 | 0.00 | 40 | 1016.0 |
| 20260504043926 | 57 | 0 | 0.0 | 0.0 | 0.00 | 0.00 | 0.00 | 41 | 1016.1 |
| 20260504043427 | 57 | 0 | 0.0 | 0.0 | 0.00 | 0.00 | 0.00 | 41 | 1016.1 |
| 20260504042928 | 57 | 0 | 0.0 | 0.0 | 0.00 | 0.00 | 0.00 | 42 | 1016.1 |
| 20260504042429 | 56 | 0 | 0.0 | 0.0 | 0.00 | 0.00 | 0.00 | 41 | 1016.1 |
| 20260504041930 | 56 | 0 | 0.0 | 0.0 | 0.00 | 0.00 | 0.00 | 43 | 1016.1 |
| 20260504041433 | 56 | 0 | 0.0 | 0.0 | 0.00 | 0.00 | 0.00 | 43 | 1016.0 |
| 20260504040933 | 56 | 0 | 0.0 | 0.0 | 0.00 | 0.00 | 0.00 | 43 | 1016.0 |
| 20260504040434 | 55 | 0 | 0.0 | 0.0 | 0.00 | 0.00 | 0.00 | 42 | 1015.9 |
| 20260504035935 | 55 | 350 | 0.0 | 1.0 | 0.00 | 0.00 | 0.00 | 43 | 1015.9 |
| 20260504035437 | 55 | 315 | 0.0 | 0.0 | 0.00 | 0.00 | 0.00 | 43 | 1015.9 |
| 20260504034938 | 55 | 315 | 0.0 | 0.0 | 0.00 | 0.00 | 0.00 | 43 | 1015.8 |
| 20260504034439 | 55 | 315 | 0.0 | 0.0 | 0.00 | 0.00 | 0.00 | 44 | 1015.9 |
| 20260504033940 | 55 | 315 | 0.0 | 0.0 | 0.00 | 0.00 | 0.00 | 42 | 1015.9 |
| 20260504033442 | 55 | 315 | 0.0 | 0.0 | 0.00 | 0.00 | 0.00 | 44 | 1016.0 |
| 20260504032943 | 55 | 315 | 0.0 | 0.0 | 0.00 | 0.00 | 0.00 | 43 | 1016.0 |
| 20260504032444 | 55 | 315 | 0.0 | 0.0 | 0.00 | 0.00 | 0.00 | 43 | 1016.0 |
| 20260504031945 | 55 | 315 | 0.0 | 1.0 | 0.00 | 0.00 | 0.00 | 43 | 1016.0 |
| 20260504031446 | 55 | 315 | 0.0 | 0.0 | 0.00 | 0.00 | 0.00 | 42 | 1015.9 |
| 20260504030948 | 55 | 315 | 0.0 | 0.0 | 0.00 | 0.00 | 0.00 | 44 | 1016.0 |
| 20260504030449 | 55 | 315 | 0.0 | 0.0 | 0.00 | 0.00 | 0.00 | 43 | 1016.0 |
| 20260504025950 | 55 | 315 | 0.0 | 0.0 | 0.00 | 0.00 | 0.00 | 42 | 1016.0 |
| 20260504025451 | 55 | 315 | 0.0 | 0.0 | 0.00 | 0.00 | 0.00 | 42 | 1016.0 |
| 20260504024952 | 55 | 315 | 0.0 | 0.0 | 0.00 | 0.00 | 0.00 | 42 | 1015.9 |
| 20260504024454 | 55 | 315 | 0.0 | 0.0 | 0.00 | 0.00 | 0.00 | 42 | 1015.9 |
| 20260504023955 | 56 | 315 | 0.0 | 0.0 | 0.00 | 0.00 | 0.00 | 42 | 1015.9 |
| 20260504023456 | 56 | 315 | 0.0 | 1.0 | 0.00 | 0.00 | 0.00 | 41 | 1015.9 |
| 20260504022957 | 56 | 315 | 0.0 | 0.0 | 0.00 | 0.00 | 0.00 | 41 | 1015.8 |
| 20260504022459 | 56 | 315 | 0.0 | 0.0 | 0.00 | 0.00 | 0.00 | 41 | 1015.9 |
| 20260504022000 | 56 | 315 | 0.0 | 0.0 | 0.00 | 0.00 | 0.00 | 41 | 1016.0 |
| 20260504021501 | 56 | 315 | 0.0 | 0.0 | 0.00 | 0.00 | 0.00 | 41 | 1015.9 |
| 20260504021002 | 56 | 315 | 0.0 | 0.0 | 0.00 | 0.00 | 0.00 | 41 | 1015.9 |
| 20260504020504 | 56 | 315 | 0.0 | 0.0 | 0.00 | 0.00 | 0.00 | 40 | 1016.0 |
| 20260504020005 | 56 | 315 | 0.0 | 0.0 | 0.00 | 0.00 | 0.00 | 41 | 1016.0 |
| 20260504015007 | 56 | 315 | 0.0 | 0.0 | 0.00 | 0.00 | 0.00 | 41 | 1015.9 |
| 20260504014508 | 56 | 315 | 0.0 | 0.0 | 0.00 | 0.00 | 0.00 | 41 | 1016.0 |
| 20260504014010 | 56 | 315 | 0.0 | 0.0 | 0.00 | 0.00 | 0.00 | 41 | 1016.0 |
| 20260504013511 | 56 | 315 | 0.0 | 0.0 | 0.00 | 0.00 | 0.00 | 40 | 1016.0 |
| 20260504013012 | 56 | 315 | 0.0 | 0.0 | 0.00 | 0.00 | 0.00 | 40 | 1016.0 |
| 20260504012513 | 56 | 315 | 0.0 | 0.0 | 0.00 | 0.00 | 0.00 | 40 | 1016.0 |
| 20260504012014 | 57 | 315 | 0.0 | 0.0 | 0.00 | 0.00 | 0.00 | 40 | 1015.9 |
| 20260504011516 | 57 | 315 | 0.0 | 0.0 | 0.00 | 0.00 | 0.00 | 40 | 1015.9 |
| 20260504011017 | 57 | 315 | 0.0 | 0.0 | 0.00 | 0.00 | 0.00 | 40 | 1015.8 |
| 20260504010019 | 57 | 315 | 0.0 | 0.0 | 0.00 | 0.00 | 0.00 | 39 | 1015.8 |
| 20260504005521 | 57 | 315 | 0.0 | 0.0 | 0.00 | 0.00 | 0.00 | 40 | 1015.8 |
| 20260504005022 | 57 | 315 | 0.0 | 0.0 | 0.00 | 0.00 | 0.00 | 40 | 1015.9 |
| 20260504004523 | 57 | 315 | 0.0 | 0.0 | 0.00 | 0.00 | 0.00 | 40 | 1015.9 |
| 20260504003525 | 57 | 315 | 0.0 | 0.0 | 0.00 | 0.00 | 0.00 | 39 | 1015.8 |
| 20260504003027 | 57 | 315 | 0.0 | 0.0 | 0.00 | 0.00 | 0.00 | 40 | 1015.8 |
| 20260504002528 | 57 | 315 | 0.0 | 1.0 | 0.00 | 0.00 | 0.00 | 40 | 1015.8 |
| 20260504002029 | 57 | 315 | 0.0 | 0.0 | 0.00 | 0.00 | 0.00 | 40 | 1015.9 |
| 20260504001530 | 57 | 315 | 0.0 | 0.0 | 0.00 | 0.00 | 0.00 | 40 | 1015.9 |
| 20260504001032 | 57 | 315 | 0.0 | 0.0 | 0.00 | 0.00 | 0.00 | 40 | 1015.9 |
| 20260504000533 | 57 | 315 | 0.0 | 0.0 | 0.00 | 0.00 | 0.00 | 39 | 1015.9 |
| 20260504000034 | 58 | 315 | 0.0 | 0.0 | 0.00 | 0.00 | 0.00 | 39 | 1016.0 |
| 20260503235535 | 57 | 315 | 0.0 | 0.0 | 0.00 | 0.00 | 0.00 | 40 | 1016.0 |
| 20260503235036 | 58 | 315 | 0.0 | 0.0 | 0.00 | 0.00 | 0.00 | 40 | 1016.1 |
| 20260503234039 | 58 | 315 | 0.0 | 0.0 | 0.00 | 0.00 | 0.00 | 40 | 1016.1 |
| 20260503233041 | 58 | 315 | 0.0 | 0.0 | 0.00 | 0.00 | 0.00 | 39 | 1016.1 |
| 20260503232543 | 58 | 315 | 0.0 | 0.0 | 0.00 | 0.00 | 0.00 | 40 | 1016.1 |
| 20260503232044 | 58 | 315 | 0.0 | 0.0 | 0.00 | 0.00 | 0.00 | 40 | 1016.1 |
| 20260503231545 | 58 | 315 | 0.0 | 0.0 | 0.00 | 0.00 | 0.00 | 39 | 1016.1 |
| 20260503231046 | 59 | 315 | 0.0 | 0.0 | 0.00 | 0.00 | 0.00 | 39 | 1016.1 |
| 20260503230547 | 58 | 315 | 0.0 | 0.0 | 0.00 | 0.00 | 0.00 | 39 | 1016.1 |
| 20260503230048 | 59 | 315 | 0.0 | 0.0 | 0.00 | 0.00 | 0.00 | 39 | 1016.1 |
| 20260503225550 | 59 | 315 | 0.0 | 0.0 | 0.00 | 0.00 | 0.00 | 38 | 1016.1 |
| 20260503225051 | 59 | 315 | 0.0 | 0.0 | 0.00 | 0.00 | 0.00 | 39 | 1016.2 |
| 20260503224553 | 59 | 315 | 0.0 | 0.0 | 0.00 | 0.00 | 0.00 | 39 | 1016.1 |
| 20260503224053 | 59 | 315 | 0.0 | 0.0 | 0.00 | 0.00 | 0.00 | 39 | 1016.2 |
| 20260503223555 | 59 | 315 | 0.0 | 0.0 | 0.00 | 0.00 | 0.00 | 39 | 1016.1 |
| 20260503223056 | 59 | 315 | 0.0 | 0.0 | 0.00 | 0.00 | 0.00 | 39 | 1016.1 |
| 20260503222557 | 59 | 315 | 0.0 | 0.0 | 0.00 | 0.00 | 0.00 | 39 | 1016.1 |
| 20260503222058 | 59 | 315 | 0.0 | 0.0 | 0.00 | 0.00 | 0.00 | 40 | 1016.2 |
| 20260503221600 | 60 | 315 | 0.0 | 1.0 | 0.00 | 0.00 | 0.00 | 38 | 1016.2 |
| 20260503221101 | 60 | 315 | 0.0 | 0.0 | 0.00 | 0.00 | 0.00 | 39 | 1016.2 |
| 20260503220602 | 59 | 315 | 0.0 | 0.0 | 0.00 | 0.00 | 0.00 | 40 | 1016.3 |
| 20260503220103 | 60 | 315 | 0.0 | 0.0 | 0.00 | 0.00 | 0.00 | 39 | 1016.4 |
| 20260503215604 | 60 | 315 | 0.0 | 0.0 | 0.00 | 0.00 | 0.00 | 39 | 1016.3 |
| 20260503215111 | 60 | 315 | 0.0 | 0.0 | 0.00 | 0.00 | 0.00 | 39 | 1016.3 |
| 20260503215106 | 60 | 315 | 0.0 | 0.0 | 0.00 | 0.00 | 0.00 | 39 | 1016.3 |
| 20260503214607 | 60 | 315 | 0.0 | 0.0 | 0.00 | 0.00 | 0.00 | 39 | 1016.3 |
| 20260503214108 | 61 | 315 | 0.0 | 0.0 | 0.00 | 0.00 | 0.00 | 39 | 1016.3 |
| 20260503213609 | 61 | 315 | 0.0 | 0.0 | 0.00 | 0.00 | 0.00 | 39 | 1016.2 |
| 20260503213111 | 61 | 315 | 0.0 | 0.0 | 0.00 | 0.00 | 0.00 | 39 | 1016.3 |
| 20260503212612 | 61 | 315 | 0.0 | 0.0 | 0.00 | 0.00 | 0.00 | 39 | 1016.3 |
| 20260503212113 | 61 | 315 | 0.0 | 0.0 | 0.00 | 0.00 | 0.00 | 39 | 1016.3 |
| 20260503211614 | 61 | 315 | 0.0 | 0.0 | 0.00 | 0.00 | 0.00 | 39 | 1016.3 |
| 20260503211115 | 61 | 315 | 0.0 | 0.0 | 0.00 | 0.00 | 0.00 | 41 | 1016.4 |
| 20260503210617 | 62 | 315 | 0.0 | 0.0 | 0.00 | 0.00 | 0.00 | 39 | 1016.4 |
| 20260503210118 | 62 | 315 | 0.0 | 0.0 | 0.00 | 0.00 | 0.00 | 39 | 1016.4 |
| 20260503205619 | 62 | 315 | 0.0 | 0.0 | 0.00 | 0.00 | 0.00 | 38 | 1016.5 |
| 20260503205120 | 62 | 315 | 0.0 | 0.0 | 0.00 | 0.00 | 0.00 | 38 | 1016.6 |
| 20260503204621 | 62 | 315 | 0.0 | 0.0 | 0.00 | 0.00 | 0.00 | 37 | 1016.5 |
| 20260503204123 | 62 | 315 | 0.0 | 0.0 | 0.00 | 0.00 | 0.00 | 38 | 1016.5 |
| 20260503203125 | 63 | 315 | 0.0 | 0.0 | 0.00 | 0.00 | 0.00 | 37 | 1016.4 |
| 20260503202640 | 63 | 315 | 0.0 | 0.0 | 0.00 | 0.00 | 0.00 | 37 | 1016.3 |
| 20260503202626 | 63 | 315 | 0.0 | 0.0 | 0.00 | 0.00 | 0.00 | 37 | 1016.3 |
| 20260503202128 | 63 | 315 | 0.0 | 0.0 | 0.00 | 0.00 | 0.00 | 37 | 1016.4 |
| 20260503201629 | 63 | 315 | 0.0 | 0.0 | 0.00 | 0.00 | 0.00 | 37 | 1016.4 |
| 20260503201130 | 64 | 315 | 0.0 | 0.0 | 0.00 | 0.00 | 0.00 | 36 | 1016.3 |
| 20260503200631 | 64 | 315 | 0.0 | 0.0 | 0.00 | 0.00 | 0.00 | 36 | 1016.3 |
| 20260503200133 | 64 | 315 | 0.0 | 0.0 | 0.00 | 0.00 | 0.00 | 36 | 1016.4 |
| 20260503195634 | 64 | 315 | 0.0 | 0.0 | 0.00 | 0.00 | 0.00 | 36 | 1016.4 |
| 20260503195135 | 64 | 315 | 0.0 | 0.0 | 0.00 | 0.00 | 0.00 | 35 | 1016.4 |
| 20260503194636 | 64 | 315 | 0.0 | 0.0 | 0.00 | 0.00 | 0.00 | 35 | 1016.3 |
| 20260503194137 | 65 | 315 | 0.0 | 0.0 | 0.00 | 0.00 | 0.00 | 35 | 1016.3 |
| 20260503193639 | 65 | 315 | 0.0 | 0.0 | 0.00 | 0.00 | 0.00 | 35 | 1016.3 |
| 20260503193140 | 65 | 315 | 0.0 | 0.0 | 0.00 | 0.00 | 0.00 | 34 | 1016.3 |
| 20260503192641 | 65 | 315 | 0.0 | 0.0 | 0.00 | 0.00 | 0.00 | 35 | 1016.3 |
| 20260503192142 | 65 | 315 | 0.0 | 0.0 | 0.00 | 0.00 | 0.00 | 34 | 1016.3 |
| 20260503191643 | 65 | 315 | 0.0 | 0.0 | 0.00 | 0.00 | 0.00 | 35 | 1016.3 |
| 20260503191145 | 66 | 315 | 0.0 | 0.0 | 0.00 | 0.00 | 0.00 | 34 | 1016.3 |
| 20260503190646 | 66 | 315 | 0.0 | 0.0 | 0.00 | 0.00 | 0.00 | 34 | 1016.3 |
| 20260503190147 | 66 | 315 | 0.0 | 0.0 | 0.00 | 0.00 | 0.00 | 34 | 1016.2 |
| 20260503185648 | 67 | 315 | 0.0 | 0.0 | 0.00 | 0.00 | 0.00 | 34 | 1016.2 |
| 20260503185149 | 67 | 315 | 0.0 | 0.0 | 0.00 | 0.00 | 0.00 | 33 | 1016.2 |
| 20260503184651 | 67 | 315 | 0.0 | 0.0 | 0.00 | 0.00 | 0.00 | 32 | 1016.2 |
| 20260503184152 | 68 | 315 | 0.0 | 0.0 | 0.00 | 0.00 | 0.00 | 32 | 1016.2 |
| 20260503183653 | 68 | 315 | 0.0 | 0.0 | 0.00 | 0.00 | 0.00 | 31 | 1016.2 |
| 20260503183206 | 69 | 315 | 0.0 | 0.0 | 0.00 | 0.00 | 0.00 | 31 | 1016.2 |
| 20260503183154 | 69 | 315 | 0.0 | 0.0 | 0.00 | 0.00 | 0.00 | 31 | 1016.2 |
| 20260503182656 | 69 | 315 | 0.0 | 0.0 | 0.00 | 0.00 | 0.00 | 30 | 1016.1 |
| 20260503182157 | 69 | 315 | 0.0 | 0.0 | 0.00 | 0.00 | 0.00 | 30 | 1016.0 |
| 20260503181658 | 70 | 315 | 0.0 | 0.0 | 0.00 | 0.00 | 0.00 | 29 | 1016.0 |
| 20260503181159 | 71 | 315 | 0.0 | 0.0 | 0.00 | 0.00 | 0.00 | 28 | 1015.9 |
| 20260503180700 | 71 | 315 | 0.0 | 0.0 | 0.00 | 0.00 | 0.00 | 27 | 1016.0 |
| 20260503180202 | 73 | 315 | 0.0 | 0.0 | 0.00 | 0.00 | 0.00 | 27 | 1016.0 |
| 20260503175703 | 73 | 315 | 0.0 | 0.0 | 0.00 | 0.00 | 0.00 | 26 | 1015.9 |
| 20260503175204 | 74 | 315 | 0.0 | 0.0 | 0.00 | 0.00 | 0.00 | 26 | 1015.9 |
| 20260503174705 | 76 | 315 | 0.0 | 0.0 | 0.00 | 0.00 | 0.00 | 23 | 1015.9 |
| 20260503174206 | 78 | 315 | 0.0 | 0.0 | 0.00 | 0.00 | 0.00 | 22 | 1016.0 |
| 20260503173708 | 81 | 315 | 0.0 | 0.0 | 0.00 | 0.00 | 0.00 | 21 | 1016.0 |
| 20260503173209 | 84 | 315 | 0.0 | 1.0 | 0.00 | 0.00 | 0.00 | 19 | 1016.0 |
| 20260503172710 | 83 | 315 | 0.0 | 0.0 | 0.00 | 0.00 | 0.00 | 20 | 1016.0 |
| 20260503172211 | 84 | 315 | 0.0 | 1.0 | 0.00 | 0.00 | 0.00 | 19 | 1015.9 |
| 20260503171712 | 83 | 315 | 0.0 | 1.0 | 0.00 | 0.00 | 0.00 | 19 | 1015.9 |
| 20260503171214 | 87 | 315 | 0.0 | 1.0 | 0.00 | 0.00 | 0.00 | 17 | 1015.9 |
| 20260503170715 | 89 | 315 | 0.0 | 1.0 | 0.00 | 0.00 | 0.00 | 16 | 1016.0 |
| 20260503170216 | 93 | 315 | 0.0 | 0.0 | 0.00 | 0.00 | 0.00 | 14 | 1016.0 |
| 20260503150743 | 109 | 287 | 0.0 | 1.0 | 0.00 | 0.00 | 0.00 | 8 | 1016.5 |
| 20260503150245 | 110 | 315 | 0.0 | 0.0 | 0.00 | 0.00 | 0.00 | 8 | 1016.5 |